TimeCEST,TemperatureF,Dew PointF,Humidity,Sea Level PressureIn,VisibilityMPH,Wind Direction,Wind SpeedMPH,Gust SpeedMPH,PrecipitationIn,Events,Conditions,WindDirDegrees,DateUTC
12:25 AM,39.2,28.4,65,29.89,6.2,ENE,13.8,-,N/A,,Scattered Clouds,60,2013-04-04 22:25:00
12:55 AM,37.4,28.4,70,29.89,-9999.0,ENE,12.7,-,N/A,,Clear,70,2013-04-04 22:55:00
1:25 AM,39.2,28.4,65,29.89,-9999.0,ENE,15.0,-,N/A,,Clear,60,2013-04-04 23:25:00
1:55 AM,37.4,28.4,70,29.89,-9999.0,ENE,12.7,-,N/A,,Clear,60,2013-04-04 23:55:00
2:00 AM,38,28,55,29.90,18,ENE,13.4,,,,Partly Cloudy,60,2013-04-05 00:00:00
2:25 AM,37.4,28.4,70,29.89,6.2,ENE,13.8,-,N/A,,Partly Cloudy,60,2013-04-05 00:25:00
2:55 AM,37.4,28.4,70,29.89,6.2,ENE,13.8,-,N/A,,Mostly Cloudy,60,2013-04-05 00:55:00
3:25 AM,37.4,28.4,70,29.89,6.2,ENE,13.8,-,N/A,,Mostly Cloudy,60,2013-04-05 01:25:00
3:55 AM,37.4,30.2,75,29.86,6.2,NE,16.1,-,N/A,,Mostly Cloudy,50,2013-04-05 01:55:00
4:25 AM,37.4,30.2,75,29.86,6.2,NE,16.1,-,N/A,,Partly Cloudy,50,2013-04-05 02:25:00
4:55 AM,37.4,28.4,70,29.86,-9999.0,NE,13.8,-,N/A,,Clear,50,2013-04-05 02:55:00
5:00 AM,37,29,63,29.88,16,NE,15.7,,,,Overcast,50,2013-04-05 03:00:00
5:25 AM,35.6,28.4,75,29.86,6.2,NE,13.8,-,N/A,,Overcast,50,2013-04-05 03:25:00
5:55 AM,35.6,28.4,75,29.86,6.2,NE,17.3,-,N/A,,Mostly Cloudy,50,2013-04-05 03:55:00
6:25 AM,35.6,28.4,75,29.86,6.2,NE,16.1,-,N/A,,Mostly Cloudy,50,2013-04-05 04:25:00
6:55 AM,35.6,26.6,70,29.86,6.2,NE,17.3,-,N/A,,Mostly Cloudy,50,2013-04-05 04:55:00
7:25 AM,35.6,26.6,70,29.89,6.2,ENE,18.4,-,N/A,,Scattered Clouds,60,2013-04-05 05:25:00
7:55 AM,33.8,26.6,75,29.89,6.2,NE,15.0,-,N/A,,Partly Cloudy,50,2013-04-05 05:55:00
8:00 AM,34,27,66,29.91,15,NE,13.4,,,,Partly Cloudy,50,2013-04-05 06:00:00
8:25 AM,35.6,26.6,70,29.89,6.2,NE,15.0,-,N/A,,Partly Cloudy,50,2013-04-05 06:25:00
8:55 AM,35.6,26.6,70,29.89,6.2,NE,16.1,-,N/A,,Partly Cloudy,50,2013-04-05 06:55:00
9:25 AM,35.6,26.6,70,29.89,6.2,NE,18.4,-,N/A,,Scattered Clouds,50,2013-04-05 07:25:00
9:55 AM,37.4,28.4,70,29.92,6.2,NE,18.4,-,N/A,,Scattered Clouds,50,2013-04-05 07:55:00
10:25 AM,39.2,28.4,65,29.92,6.2,NE,19.6,-,N/A,,Scattered Clouds,50,2013-04-05 08:25:00
10:55 AM,37.4,28.4,70,29.92,6.2,NE,19.6,-,N/A,,Mostly Cloudy,50,2013-04-05 08:55:00
11:00 AM,38,29,58,29.94,16,NE,17.9,,,,Overcast,50,2013-04-05 09:00:00
11:25 AM,39.2,28.4,65,29.92,6.2,NE,20.7,-,N/A,,Mostly Cloudy,50,2013-04-05 09:25:00
11:55 AM,39.2,28.4,65,29.92,6.2,ENE,20.7,-,N/A,,Scattered Clouds,60,2013-04-05 09:55:00
12:25 PM,41.0,28.4,61,29.92,6.2,NE,23.0,-,N/A,,Scattered Clouds,50,2013-04-05 10:25:00
12:55 PM,41.0,26.6,57,29.92,6.2,NE,21.9,-,N/A,,Scattered Clouds,40,2013-04-05 10:55:00
1:25 PM,42.8,24.8,49,29.92,6.2,NE,23.0,-,N/A,,Scattered Clouds,50,2013-04-05 11:25:00
1:55 PM,46.4,24.8,43,29.92,6.2,NE,20.7,-,N/A,,Scattered Clouds,40,2013-04-05 11:55:00
2:00 PM,45,25,32,29.93,18,NE,20.1,,,,Partly Cloudy,40,2013-04-05 12:00:00
2:25 PM,44.6,24.8,46,29.92,6.2,NNE,19.6,-,N/A,,Partly Cloudy,30,2013-04-05 12:25:00
2:55 PM,46.4,24.8,43,29.92,6.2,NE,19.6,-,N/A,,Partly Cloudy,40,2013-04-05 12:55:00
3:25 PM,46.4,24.8,43,29.92,6.2,NE,18.4,-,N/A,,Partly Cloudy,40,2013-04-05 13:25:00
3:55 PM,46.4,24.8,43,29.92,6.2,NNE,15.0,-,N/A,,Partly Cloudy,20,2013-04-05 13:55:00
4:25 PM,46.4,26.6,46,29.92,6.2,NNE,17.3,-,N/A,,Partly Cloudy,30,2013-04-05 14:25:00
4:55 PM,44.6,26.6,49,29.92,6.2,NE,15.0,-,N/A,,Scattered Clouds,40,2013-04-05 14:55:00
5:00 PM,45,26,34,29.92,22,NE,15.7,,,,Partly Cloudy,50,2013-04-05 15:00:00
5:25 PM,44.6,26.6,49,29.92,6.2,NE,13.8,-,N/A,,Mostly Cloudy,40,2013-04-05 15:25:00
5:55 PM,44.6,26.6,49,29.92,6.2,NNE,15.0,-,N/A,,Mostly Cloudy,30,2013-04-05 15:55:00
6:25 PM,44.6,26.6,49,29.92,6.2,NNE,12.7,-,N/A,,Mostly Cloudy,30,2013-04-05 16:25:00
6:55 PM,42.8,24.8,49,29.92,6.2,NNE,16.1,-,N/A,,Mostly Cloudy,30,2013-04-05 16:55:00
7:25 PM,42.8,24.8,49,29.92,6.2,NNE,13.8,-,N/A,,Mostly Cloudy,20,2013-04-05 17:25:00
7:55 PM,41.0,24.8,53,29.95,6.2,NNE,16.1,-,N/A,,Scattered Clouds,20,2013-04-05 17:55:00
8:00 PM,41,26,43,29.96,28,NNE,15.7,,,,Partly Cloudy,20,2013-04-05 18:00:00
8:25 PM,39.2,26.6,61,29.95,6.2,NNE,13.8,-,N/A,,Partly Cloudy,20,2013-04-05 18:25:00
8:55 PM,39.2,28.4,65,29.98,-9999.0,NNE,13.8,-,N/A,,Clear,20,2013-04-05 18:55:00
9:25 PM,39.2,28.4,65,29.98,-9999.0,NNE,12.7,-,N/A,,Clear,20,2013-04-05 19:25:00
9:55 PM,39.2,28.4,65,30.01,-9999.0,NNE,12.7,-,N/A,,Clear,30,2013-04-05 19:55:00
10:25 PM,39.2,28.4,65,30.01,6.2,NNE,10.4,-,N/A,,Partly Cloudy,30,2013-04-05 20:25:00
10:55 PM,39.2,30.2,70,30.01,6.2,NNE,12.7,-,N/A,,Partly Cloudy,20,2013-04-05 20:55:00
11:00 PM,38,30,65,30.03,15,NNE,13.4,,,,Overcast,30,2013-04-05 21:00:00
11:25 PM,39.2,30.2,70,30.01,6.2,NNE,11.5,-,N/A,,Partly Cloudy,20,2013-04-05 21:25:00
11:55 PM,39.2,32.0,75,30.01,-9999.0,NNE,13.8,-,N/A,,Clear,30,2013-04-05 21:55:00